AAL51 KCLE-KJFK

Flight info

Callsign AAL51
Flight time 1h 7m
Altitude 37000
Route PFLYD1 JASEE JHW Q476 WLKES PUCKY1
Aircraft B738/M-SDE2E3FGHIRWXY/LB1

Departure

Time 2026-05-08 23:39
Airport Cleveland Hopkins International Airport (KCLE)

Arrival

Time 2026-05-09 00:47
Airport John F. Kennedy International Airport (KJFK)
Time Latitude Longitude Altitude Speed Heading
2026-05-08 22:56 41.40728 -81.84084 793 ft 0 kts 292°
2026-05-08 23:25 41.40725 -81.84075 793 ft 0 kts 292°
2026-05-08 23:25 41.40721 -81.84059 793 ft 2 kts 278°
2026-05-08 23:25 41.40721 -81.84039 793 ft 2 kts 263°
2026-05-08 23:26 41.40724 -81.84019 793 ft 2 kts 246°
2026-05-08 23:26 41.40731 -81.84003 793 ft 2 kts 230°
2026-05-08 23:26 41.40742 -81.83989 793 ft 1 kts 215°
2026-05-08 23:26 41.40747 -81.83984 793 ft 1 kts 210°
2026-05-08 23:27 41.40749 -81.83983 793 ft 0 kts 211°
2026-05-08 23:33 41.40749 -81.83984 793 ft 0 kts 211°
2026-05-08 23:33 41.40720 -81.84006 793 ft 6 kts 211°
2026-05-08 23:33 41.40679 -81.84041 793 ft 8 kts 212°
2026-05-08 23:33 41.40619 -81.84103 793 ft 11 kts 237°
2026-05-08 23:34 41.40610 -81.84211 793 ft 14 kts 271°
2026-05-08 23:34 41.40612 -81.84379 792 ft 17 kts 278°
2026-05-08 23:34 41.40712 -81.84435 792 ft 20 kts
2026-05-08 23:34 41.40873 -81.84431 791 ft 20 kts 15°
2026-05-08 23:35 41.41002 -81.84373 791 ft 20 kts 358°
2026-05-08 23:35 41.41142 -81.84381 791 ft 20 kts
2026-05-08 23:35 41.41247 -81.84284 791 ft 20 kts 51°
2026-05-08 23:35 41.41336 -81.84143 791 ft 10 kts 35°
2026-05-08 23:36 41.41387 -81.84153 791 ft 3 kts 334°
2026-05-08 23:36 41.41414 -81.84153 791 ft 6 kts 12°
2026-05-08 23:36 41.41449 -81.84142 791 ft 0 kts 353°
2026-05-08 23:37 41.41485 -81.84167 790 ft 13 kts 326°
2026-05-08 23:37 41.41517 -81.84230 790 ft 0 kts 231°
2026-05-08 23:38 41.41516 -81.84232 790 ft 1 kts 229°
2026-05-08 23:38 41.41467 -81.84308 790 ft 22 kts 230°
2026-05-08 23:39 41.41188 -81.84745 788 ft 98 kts 230°
2026-05-08 23:39 41.40608 -81.85664 781 ft 159 kts 230°
2026-05-08 23:39 41.39836 -81.86918 1173 ft 180 kts 231°
2026-05-08 23:39 41.39117 -81.88189 2076 ft 172 kts 239°
2026-05-08 23:40 41.38701 -81.89690 2661 ft 178 kts 262°
2026-05-08 23:40 41.38851 -81.91347 3135 ft 186 kts 283°
2026-05-08 23:40 41.39205 -81.93049 3558 ft 197 kts 281°
2026-05-08 23:40 41.39510 -81.94906 3793 ft 219 kts 279°
2026-05-08 23:41 41.39794 -81.97014 4114 ft 238 kts 277°
2026-05-08 23:41 41.40057 -81.99150 5073 ft 231 kts 277°
2026-05-08 23:41 41.40320 -82.01292 5494 ft 246 kts 277°
2026-05-08 23:41 41.40587 -82.03557 6086 ft 250 kts 278°
2026-05-08 23:42 41.40885 -82.05965 6436 ft 268 kts 278°
2026-05-08 23:42 41.41192 -82.08290 7578 ft 255 kts 278°
2026-05-08 23:42 41.41535 -82.10577 8386 ft 255 kts 285°
2026-05-08 23:42 41.42415 -82.12637 9075 ft 265 kts 310°
2026-05-08 23:43 41.43931 -82.14078 9815 ft 276 kts 330°
2026-05-08 23:43 41.45790 -82.14835 10485 ft 289 kts 345°
2026-05-08 23:43 41.47877 -82.14811 10871 ft 316 kts
2026-05-08 23:43 41.49920 -82.13502 11245 ft 344 kts 34°
2026-05-08 23:44 41.51679 -82.11196 11683 ft 363 kts 46°
2026-05-08 23:44 41.53287 -82.08545 12057 ft 380 kts 49°
2026-05-08 23:44 41.54935 -82.05674 12588 ft 391 kts 49°
2026-05-08 23:44 41.56599 -82.02801 13208 ft 399 kts 49°
2026-05-08 23:45 41.58333 -81.99878 13908 ft 404 kts 48°
2026-05-08 23:45 41.60050 -81.96937 14650 ft 410 kts 52°
2026-05-08 23:45 41.61500 -81.93632 15348 ft 419 kts 63°
2026-05-08 23:45 41.62436 -81.89887 16073 ft 427 kts 76°
2026-05-08 23:46 41.62889 -81.85943 16729 ft 434 kts 82°
2026-05-08 23:46 41.63173 -81.81941 17389 ft 440 kts 84°
2026-05-08 23:46 41.63390 -81.77799 18008 ft 447 kts 85°
2026-05-08 23:46 41.63579 -81.73676 18671 ft 451 kts 85°
2026-05-08 23:47 41.63772 -81.69460 19290 ft 457 kts 85°
2026-05-08 23:47 41.63976 -81.65231 19871 ft 463 kts 85°
2026-05-08 23:47 41.64197 -81.60867 20478 ft 469 kts 84°
2026-05-08 23:47 41.64453 -81.56548 21014 ft 475 kts 83°
2026-05-08 23:48 41.64870 -81.52168 21642 ft 478 kts 77°
2026-05-08 23:48 41.65572 -81.47787 22162 ft 482 kts 72°
2026-05-08 23:48 41.66467 -81.43453 22782 ft 485 kts 70°
2026-05-08 23:48 41.67466 -81.39143 23237 ft 491 kts 68°
2026-05-08 23:49 41.68525 -81.34800 23852 ft 494 kts 68°
2026-05-08 23:49 41.69627 -81.30335 24274 ft 501 kts 68°
2026-05-08 23:49 41.70719 -81.25880 24816 ft 505 kts 69°
2026-05-08 23:49 41.71801 -81.21390 25282 ft 511 kts 69°
2026-05-08 23:50 41.72879 -81.16830 25822 ft 514 kts 69°
2026-05-08 23:50 41.73953 -81.12209 26209 ft 521 kts 70°
2026-05-08 23:50 41.75009 -81.07602 26654 ft 525 kts 69°
2026-05-08 23:50 41.76076 -81.02889 27209 ft 527 kts 70°
2026-05-08 23:51 41.77141 -80.98165 27723 ft 530 kts 69°
2026-05-08 23:51 41.78221 -80.93368 28197 ft 533 kts 70°
2026-05-08 23:51 41.79307 -80.88560 28633 ft 538 kts 69°
2026-05-08 23:51 41.80402 -80.83737 28930 ft 544 kts 69°
2026-05-08 23:52 41.81512 -80.78858 29302 ft 549 kts 69°
2026-05-08 23:52 41.82493 -80.73889 29751 ft 554 kts 75°
2026-05-08 23:52 41.83095 -80.68729 30227 ft 557 kts 82°
2026-05-08 23:52 41.83374 -80.63548 30674 ft 560 kts 86°
2026-05-08 23:53 41.83464 -80.58309 31225 ft 558 kts 88°
2026-05-08 23:53 41.83473 -80.53207 32080 ft 548 kts 89°
2026-05-08 23:53 41.83462 -80.48132 32942 ft 538 kts 89°
2026-05-08 23:53 41.83461 -80.43095 33397 ft 536 kts 88°
2026-05-08 23:54 41.83484 -80.38147 33628 ft 539 kts 88°
2026-05-08 23:54 41.83533 -80.33064 33883 ft 541 kts 88°
2026-05-08 23:54 41.83606 -80.27886 34187 ft 540 kts 88°
2026-05-08 23:55 41.83792 -80.17783 34737 ft 541 kts 87°
2026-05-08 23:55 41.83897 -80.12733 35089 ft 539 kts 87°
2026-05-08 23:55 41.84003 -80.07773 35484 ft 536 kts 86°
2026-05-08 23:55 41.84109 -80.02761 35740 ft 536 kts 87°
2026-05-08 23:56 41.84211 -79.97774 35990 ft 536 kts 87°
2026-05-08 23:56 41.84314 -79.92757 36298 ft 535 kts 86°
2026-05-08 23:56 41.84414 -79.87819 36581 ft 534 kts 87°
2026-05-08 23:56 41.84512 -79.82835 36845 ft 533 kts 86°
2026-05-08 23:57 41.84607 -79.77840 36893 ft 537 kts 87°
2026-05-08 23:57 41.84790 -79.67672 36894 ft 548 kts 87°
2026-05-08 23:58 41.84965 -79.57393 36904 ft 558 kts 87°
2026-05-08 23:58 41.85129 -79.47006 36898 ft 555 kts 87°
2026-05-08 23:59 41.85283 -79.36622 36903 ft 557 kts 88°
2026-05-08 23:59 41.85430 -79.26082 36899 ft 555 kts 88°
2026-05-09 00:00 41.85568 -79.15727 36896 ft 554 kts 88°
2026-05-09 00:00 41.85697 -79.05367 36896 ft 554 kts 88°
2026-05-09 00:01 41.85817 -78.95013 36901 ft 557 kts 88°
2026-05-09 00:01 41.85927 -78.84612 36900 ft 554 kts 88°
2026-05-09 00:02 41.86027 -78.74297 36909 ft 555 kts 88°
2026-05-09 00:02 41.86117 -78.63902 36921 ft 556 kts 88°
2026-05-09 00:03 41.86156 -78.59266 36916 ft 555 kts 88°
2026-05-09 00:03 41.86234 -78.48907 36919 ft 555 kts 88°
2026-05-09 00:04 41.86301 -78.38557 36912 ft 557 kts 88°
2026-05-09 00:04 41.86360 -78.28006 36921 ft 555 kts 89°
2026-05-09 00:05 41.86411 -78.17630 36922 ft 555 kts 89°
2026-05-09 00:05 41.86452 -78.07270 36924 ft 555 kts 89°
2026-05-09 00:06 41.86480 -77.96890 36919 ft 556 kts 89°
2026-05-09 00:06 41.86055 -77.86541 36916 ft 556 kts 98°
2026-05-09 00:07 41.84346 -77.76417 36915 ft 554 kts 109°
2026-05-09 00:07 41.81920 -77.66674 36908 ft 552 kts 112°
2026-05-09 00:08 41.79256 -77.57044 36912 ft 551 kts 113°
2026-05-09 00:08 41.76572 -77.47407 36922 ft 552 kts 113°
2026-05-09 00:09 41.73925 -77.37728 36915 ft 555 kts 112°
2026-05-09 00:09 41.71277 -77.27924 36918 ft 553 kts 113°
2026-05-09 00:10 41.68657 -77.18165 36918 ft 554 kts 113°
2026-05-09 00:10 41.66035 -77.08445 36916 ft 555 kts 113°
2026-05-09 00:11 41.63398 -76.98695 36922 ft 555 kts 112°
2026-05-09 00:11 41.60768 -76.89008 36926 ft 555 kts 113°
2026-05-09 00:12 41.58127 -76.79328 36934 ft 554 kts 113°
2026-05-09 00:12 41.55487 -76.69689 36932 ft 555 kts 113°
2026-05-09 00:13 41.52826 -76.60009 36937 ft 555 kts 112°
2026-05-09 00:13 41.50141 -76.50280 36934 ft 554 kts 112°
2026-05-09 00:13 41.48820 -76.45509 36718 ft 558 kts 112°
2026-05-09 00:14 41.47470 -76.40642 36320 ft 555 kts 113°
2026-05-09 00:14 41.46128 -76.35805 35747 ft 554 kts 113°
2026-05-09 00:14 41.44778 -76.30954 35032 ft 549 kts 114°
2026-05-09 00:14 41.43461 -76.26220 34368 ft 539 kts 114°
2026-05-09 00:15 41.42384 -76.22353 33942 ft 530 kts 114°
2026-05-09 00:15 41.41099 -76.17757 33407 ft 528 kts 114°
2026-05-09 00:15 41.39807 -76.13146 32801 ft 518 kts 114°
2026-05-09 00:15 41.38551 -76.08675 32303 ft 514 kts 114°
2026-05-09 00:16 41.37310 -76.04266 31780 ft 511 kts 114°
2026-05-09 00:16 41.36057 -75.99828 31262 ft 509 kts 113°
2026-05-09 00:16 41.34810 -75.95412 30740 ft 506 kts 113°
2026-05-09 00:16 41.33571 -75.91041 30195 ft 503 kts 113°
2026-05-09 00:17 41.32350 -75.86734 29660 ft 500 kts 113°
2026-05-09 00:17 41.31118 -75.82393 29144 ft 496 kts 113°
2026-05-09 00:17 41.29904 -75.78126 28638 ft 492 kts 113°
2026-05-09 00:17 41.28696 -75.73893 28114 ft 489 kts 113°
2026-05-09 00:18 41.27496 -75.69697 27604 ft 485 kts 112°
2026-05-09 00:18 41.26265 -75.65524 27091 ft 482 kts 114°
2026-05-09 00:18 41.24968 -75.61462 26575 ft 478 kts 115°
2026-05-09 00:18 41.23610 -75.57416 26070 ft 474 kts 116°
2026-05-09 00:19 41.22239 -75.53420 25549 ft 471 kts 116°
2026-05-09 00:19 41.20880 -75.49482 25048 ft 468 kts 115°
2026-05-09 00:19 41.19523 -75.45536 24532 ft 468 kts 116°
2026-05-09 00:19 41.18154 -75.41547 24012 ft 487 kts 115°
2026-05-09 00:20 41.16733 -75.37393 23467 ft 490 kts 114°
2026-05-09 00:20 41.15305 -75.33200 23004 ft 488 kts 115°
2026-05-09 00:20 41.13914 -75.29104 22959 ft 486 kts 115°
2026-05-09 00:20 41.12531 -75.25024 22953 ft 492 kts 115°
2026-05-09 00:21 41.11087 -75.20759 22953 ft 491 kts 115°
2026-05-09 00:21 41.09688 -75.16629 22961 ft 493 kts 115°
2026-05-09 00:21 41.08291 -75.12514 22965 ft 490 kts 115°
2026-05-09 00:21 41.06890 -75.08391 22971 ft 492 kts 115°
2026-05-09 00:22 41.05471 -75.04222 22971 ft 492 kts 115°
2026-05-09 00:22 41.04071 -75.00111 22849 ft 486 kts 115°
2026-05-09 00:22 41.02705 -74.96101 22328 ft 468 kts 115°
2026-05-09 00:22 41.01391 -74.92227 21947 ft 450 kts 114°
2026-05-09 00:23 41.00256 -74.88409 21747 ft 437 kts 108°
2026-05-09 00:23 40.99393 -74.84563 21583 ft 440 kts 102°
2026-05-09 00:23 40.98738 -74.80567 21360 ft 437 kts 98°
2026-05-09 00:23 40.98222 -74.76613 21151 ft 431 kts 97°
2026-05-09 00:24 40.97776 -74.72721 20938 ft 429 kts 96°
2026-05-09 00:24 40.97348 -74.68768 20731 ft 428 kts 96°
2026-05-09 00:24 40.96926 -74.64883 20494 ft 425 kts 95°
2026-05-09 00:24 40.96498 -74.61005 20284 ft 423 kts 95°
2026-05-09 00:25 40.96061 -74.57138 20072 ft 421 kts 96°
2026-05-09 00:25 40.95626 -74.53356 19873 ft 420 kts 96°
2026-05-09 00:25 40.95177 -74.49501 19706 ft 417 kts 96°
2026-05-09 00:25 40.94743 -74.45825 19579 ft 414 kts 96°
2026-05-09 00:26 40.94296 -74.42072 19463 ft 401 kts 97°
2026-05-09 00:26 40.93863 -74.38482 19356 ft 389 kts 96°
2026-05-09 00:26 40.93444 -74.35009 19253 ft 386 kts 96°
2026-05-09 00:26 40.93010 -74.31392 19154 ft 389 kts 97°
2026-05-09 00:27 40.92582 -74.27831 19078 ft 388 kts 97°
2026-05-09 00:27 40.92169 -74.24410 18970 ft 384 kts 97°
2026-05-09 00:27 40.91745 -74.20908 18978 ft 386 kts 97°
2026-05-09 00:27 40.91318 -74.17394 18969 ft 388 kts 97°
2026-05-09 00:28 40.90768 -74.13898 18968 ft 386 kts 106°
2026-05-09 00:28 40.89657 -74.10666 18916 ft 384 kts 127°
2026-05-09 00:28 40.87937 -74.08217 18809 ft 364 kts 149°
2026-05-09 00:28 40.85773 -74.06557 18427 ft 351 kts 162°
2026-05-09 00:29 40.83512 -74.05331 17958 ft 348 kts 166°
2026-05-09 00:29 40.81261 -74.04219 17570 ft 346 kts 167°
2026-05-09 00:29 40.78995 -74.03125 17164 ft 344 kts 167°
2026-05-09 00:29 40.76757 -74.02047 16831 ft 340 kts 167°
2026-05-09 00:30 40.74536 -74.00971 16426 ft 339 kts 168°
2026-05-09 00:30 40.72342 -73.99900 16048 ft 337 kts 167°
2026-05-09 00:30 40.70136 -73.98827 15632 ft 336 kts 167°
2026-05-09 00:30 40.67934 -73.97765 15250 ft 334 kts 167°
2026-05-09 00:31 40.65747 -73.96713 14865 ft 333 kts 167°
2026-05-09 00:31 40.63595 -73.95671 14516 ft 330 kts 168°
2026-05-09 00:31 40.61443 -73.94622 14225 ft 325 kts 167°
2026-05-09 00:31 40.59315 -73.93578 13819 ft 325 kts 167°
2026-05-09 00:32 40.57202 -73.92539 13435 ft 324 kts 167°
2026-05-09 00:32 40.55106 -73.91512 13174 ft 318 kts 167°
2026-05-09 00:32 40.53037 -73.90507 12808 ft 316 kts 167°
2026-05-09 00:32 40.50988 -73.89519 12508 ft 312 kts 167°
2026-05-09 00:33 40.48955 -73.88541 12156 ft 310 kts 167°
2026-05-09 00:33 40.46938 -73.87581 11810 ft 308 kts 167°
2026-05-09 00:33 40.44931 -73.86642 11497 ft 305 kts 167°
2026-05-09 00:33 40.42938 -73.85710 11175 ft 301 kts 167°
2026-05-09 00:34 40.40965 -73.84786 10888 ft 299 kts 167°
2026-05-09 00:34 40.38998 -73.83871 10514 ft 298 kts 167°
2026-05-09 00:34 40.37056 -73.82976 10227 ft 293 kts 168°
2026-05-09 00:34 40.35157 -73.82098 9886 ft 292 kts 167°
2026-05-09 00:35 40.33229 -73.81210 9537 ft 290 kts 167°
2026-05-09 00:35 40.31336 -73.80351 9210 ft 288 kts 167°
2026-05-09 00:35 40.29448 -73.79496 8879 ft 285 kts 167°
2026-05-09 00:35 40.27619 -73.78507 8523 ft 290 kts 154°
2026-05-09 00:36 40.26109 -73.76681 8176 ft 297 kts 128°
2026-05-09 00:36 40.25084 -73.74328 7839 ft 298 kts 118°
2026-05-09 00:36 40.24188 -73.71885 7496 ft 297 kts 117°
2026-05-09 00:36 40.23546 -73.69364 7188 ft 296 kts 97°
2026-05-09 00:37 40.23686 -73.66722 6871 ft 291 kts 70°
2026-05-09 00:37 40.24491 -73.64281 6519 ft 287 kts 59°
2026-05-09 00:37 40.25443 -73.62003 6181 ft 286 kts 57°
2026-05-09 00:37 40.26418 -73.59761 5907 ft 281 kts 57°
2026-05-09 00:38 40.27378 -73.57563 5809 ft 270 kts 56°
2026-05-09 00:38 40.28527 -73.55736 5682 ft 255 kts 34°
2026-05-09 00:38 40.29929 -73.54421 5585 ft 242 kts 27°
2026-05-09 00:38 40.31337 -73.53217 5407 ft 237 kts 27°
2026-05-09 00:39 40.32704 -73.52052 5145 ft 237 kts 27°
2026-05-09 00:39 40.34082 -73.50890 4864 ft 236 kts 27°
2026-05-09 00:39 40.35474 -73.49733 4657 ft 233 kts 27°
2026-05-09 00:39 40.36839 -73.48614 4401 ft 232 kts 26°
2026-05-09 00:40 40.38288 -73.47783 4100 ft 225 kts
2026-05-09 00:40 40.39814 -73.47815 4012 ft 214 kts 348°
2026-05-09 00:40 40.41326 -73.48094 3997 ft 219 kts 346°
2026-05-09 00:41 40.44326 -73.48675 3948 ft 216 kts 344°
2026-05-09 00:41 40.45718 -73.49315 3687 ft 212 kts 329°
2026-05-09 00:41 40.47015 -73.50234 3418 ft 211 kts 327°
2026-05-09 00:41 40.48294 -73.51187 3148 ft 211 kts 327°
2026-05-09 00:42 40.49557 -73.52143 2995 ft 209 kts 327°
2026-05-09 00:42 40.50836 -73.53117 3005 ft 213 kts 327°
2026-05-09 00:42 40.52092 -73.54076 2991 ft 201 kts 327°
2026-05-09 00:42 40.53262 -73.54960 3005 ft 186 kts 327°
2026-05-09 00:43 40.54360 -73.55788 2995 ft 180 kts 325°
2026-05-09 00:43 40.55368 -73.56759 2995 ft 177 kts 312°
2026-05-09 00:43 40.56129 -73.58019 3000 ft 176 kts 301°
2026-05-09 00:43 40.56779 -73.59366 2970 ft 177 kts 300°
2026-05-09 00:44 40.57431 -73.60763 2759 ft 178 kts 300°
2026-05-09 00:44 40.58066 -73.62144 2509 ft 177 kts 300°
2026-05-09 00:44 40.58698 -73.63523 2265 ft 174 kts 300°
2026-05-09 00:44 40.59327 -73.64896 2021 ft 175 kts 300°
2026-05-09 00:45 40.59961 -73.66282 1777 ft 178 kts 301°
2026-05-09 00:45 40.60592 -73.67662 1534 ft 176 kts 301°
2026-05-09 00:45 40.61215 -73.69026 1288 ft 168 kts 300°
2026-05-09 00:45 40.61781 -73.70264 1105 ft 156 kts 301°
2026-05-09 00:46 40.62324 -73.71453 847 ft 146 kts 301°
2026-05-09 00:46 40.62853 -73.72611 682 ft 147 kts 301°
2026-05-09 00:46 40.63383 -73.73772 467 ft 150 kts 301°
2026-05-09 00:46 40.63911 -73.74935 273 ft 149 kts 300°
2026-05-09 00:47 40.64447 -73.76105 82 ft 149 kts 301°
2026-05-09 00:47 40.64960 -73.77229 16 ft 128 kts 301°
2026-05-09 00:47 40.65234 -73.77827 16 ft 23 kts 294°
2026-05-09 00:47 40.65190 -73.77947 16 ft 10 kts 210°
2026-05-09 00:48 40.65162 -73.77970 16 ft 0 kts 244°
2026-05-09 00:48 40.65182 -73.78000 16 ft 7 kts 310°
2026-05-09 00:48 40.65210 -73.78056 16 ft 7 kts 302°
2026-05-09 00:48 40.65237 -73.78111 16 ft 7 kts 301°
2026-05-09 00:49 40.65252 -73.78146 16 ft 0 kts 300°
2026-05-09 00:50 40.65260 -73.78162 16 ft 8 kts 300°
2026-05-09 00:50 40.65319 -73.78295 16 ft 20 kts 301°
2026-05-09 00:50 40.65363 -73.78440 16 ft 15 kts 257°
2026-05-09 00:51 40.65323 -73.78558 16 ft 13 kts 241°
2026-05-09 00:51 40.65269 -73.78683 17 ft 18 kts 240°
2026-05-09 00:51 40.65215 -73.78861 17 ft 18 kts 243°
2026-05-09 00:51 40.65102 -73.78915 17 ft 19 kts 181°
2026-05-09 00:52 40.65002 -73.79038 17 ft 9 kts 292°
2026-05-09 00:52 40.65050 -73.79082 17 ft 0 kts 330°
2026-05-09 00:52 40.65049 -73.79082 17 ft 0 kts 330°